Weather reports worldwide

Advertisment
Gelbelsee, Germany (10777): temperature & dewpoint: 10.08.2018 13:00:00 - 16.08.2018 13:00:00 (CEST)Gelbelsee, Germany (10777): temperature 5cm & temperature -5cm: 10.08.2018 13:00:00 - 16.08.2018 13:00:00 (CEST)Gelbelsee, Germany (10777): temperature -20cm & temperature -100cm: 10.08.2018 13:00:00 - 16.08.2018 13:00:00 (CEST)Gelbelsee, Germany (10777): wind speed & gusts: 10.08.2018 13:00:00 - 16.08.2018 13:00:00 (CEST)Gelbelsee, Germany (10777): wind direction: 10.08.2018 13:00:00 - 16.08.2018 13:00:00 (CEST)Gelbelsee, Germany (10777): reduced air pressure: 10.08.2018 13:00:00 - 16.08.2018 13:00:00 (CEST)Gelbelsee, Germany (10777): visibility: 10.08.2018 13:00:00 - 16.08.2018 13:00:00 (CEST)Gelbelsee, Germany (10777): sunshine duration: 10.08.2018 13:00:00 - 16.08.2018 13:00:00 (CEST)Gelbelsee, Germany (10777): precipitation: 10.08.2018 13:00:00 - 16.08.2018 13:00:00 (CEST)
Date & Time tt [°C] td [°C] tt 5cm [°C] tt -5cm [°C] tt -20cm [°C] tt -100cm [°C] ff [km/h] ff [kn] fx [km/h] fx [kn] dd ppp [hPa] vv [km] sd [min] rr [mm]
16.08.2018 13:00:00 24,9 11,2 30,1 29,1 20,7 19,4 11 6 22 12 SE 1016,0 25 57 0,0
16.08.2018 12:00:00 23,4 11,4 25,7 27,1 20,1 19,4 11 6 21 11 ESE 1016,8 38 58 0,0
16.08.2018 11:00:00 23,1 13,4 27,3 24,5 19,6 19,4 9 5 16 9 SE 1017,2 22 60 0,0
16.08.2018 10:00:00 21,3 13,6 24,0 21,5 19,4 19,4 9 5 12 6 SE 1017,8 19 60 0,0
16.08.2018 09:00:00 19,1 12,9 21,0 18,6 19,4 19,4 8 4 13 7 SE 1018,3 19 60 0,0
16.08.2018 08:00:00 17,8 12,1 18,3 16,6 19,6 19,4 6 4 10 6 ESE 1018,7 21 60 0,0
16.08.2018 07:00:00 16,2 11,1 13,8 15,4 19,8 19,4 6 3 8 4 E 1019,0 38 13 0,0
16.08.2018 06:00:00 16,0 11,2 11,6 15,6 20,1 19,4 6 3 8 4 E 1018,9 30 0 0,0
16.08.2018 05:00:00 15,4 11,2 11,0 16,0 20,5 19,4 2 1 4 2 NE 1019,3 32 0 0,0
16.08.2018 04:00:00 15,7 11,6 11,4 16,5 20,8 19,4 3 2 7 4 E 1019,5 30 0 0,0
16.08.2018 03:00:00 15,8 11,5 11,8 17,1 21,1 19,4 3 1 9 5 E 1019,9 32 0 0,0
16.08.2018 02:00:00 16,0 11,7 12,0 17,7 21,5 19,4 4 2 8 4 ENE 1020,1 41 0 0,0
16.08.2018 01:00:00 17,2 11,6 14,1 18,4 21,9 19,5 6 3 11 6 E 1020,0 39 0 0,0
16.08.2018 00:00:00 18,0 11,7 14,5 19,2 22,2 19,5 5 3 8 4 NE 1019,9 47 0 0,0
15.08.2018 23:00:00 18,4 11,7 15,0 20,1 22,6 19,5 6 3 10 5 NNE 1019,7 49 0 0,0
15.08.2018 22:00:00 18,2 11,6 14,9 21,2 22,9 19,5 6 4 9 5 N 1019,6 59 0 0,0
15.08.2018 21:00:00 19,2 11,6 15,7 22,7 23,0 19,5 6 3 10 5 N 1019,1 70 11 0,0
15.08.2018 20:00:00 22,0 11,0 20,7 24,6 23,0 19,5 7 4 18 10 NW 1018,2 60 60 0,0
15.08.2018 19:00:00 23,2 11,0 23,9 26,1 22,7 19,5 9 5 18 10 NNW 1017,9 54 60 0,0
15.08.2018 18:00:00 23,4 11,0 26,2 27,1 22,4 19,5 12 6 27 15 NNW 1018,1 37 44 0,0
15.08.2018 17:00:00 23,2 11,5 25,1 27,2 22,0 19,5 12 7 20 11 NNW 1018,1 63 22 0,0
15.08.2018 16:00:00 23,1 11,5 26,2 28,0 21,3 19,6 11 6 28 15 NNW 1018,3 42 34 0,0
15.08.2018 15:00:00 23,7 11,8 30,6 27,7 20,7 19,5 12 7 27 15 W 1018,5 20 59 0,0
15.08.2018 14:00:00 22,2 11,7 26,6 25,1 20,3 19,6 13 7 21 11 NNW 1019,0 32 30 0,0
15.08.2018 13:00:00 20,5 12,5 22,9 24,0 19,8 19,6 13 7 25 14 NNW 1019,6 29 11 0,0
15.08.2018 12:00:00 20,6 12,1 24,4 23,1 19,4 19,6 14 8 22 12 NW 1019,8 27 16 0,0
15.08.2018 11:00:00 20,2 14,4 25,2 22,4 19,0 19,6 8 5 16 9 W 1019,8 21 34 0,0
15.08.2018 10:00:00 18,5 13,6 24,2 20,0 18,9 19,6 8 4 15 8 WNW 1020,0 20 53 0,0
15.08.2018 09:00:00 16,6 13,6 19,5 16,9 18,9 19,6 6 3 12 6 W 1020,1 17 10 0,0
15.08.2018 08:00:00 15,8 13,3 17,8 15,8 19,0 19,6 8 4 12 6 WNW 1020,0 22 13 0,0
15.08.2018 07:00:00 14,0 12,6 12,9 15,6 19,2 19,6 6 3 9 5 W 1020,2 16 0 0,0
15.08.2018 06:00:00 14,6 12,7 13,9 15,9 19,4 19,6 7 4 11 6 SW 1019,6 18 0 0,0
15.08.2018 05:00:00 15,5 12,8 14,2 15,7 19,6 19,6 6 4 14 7 NNW 1019,3 21 0 0,0
15.08.2018 04:00:00 15,4 12,5 13,0 15,6 19,9 19,6 9 5 14 8 NW 1019,3 26 0 0,0
15.08.2018 03:00:00 15,1 12,4 12,7 16,0 20,2 19,6 9 5 15 8 WNW 1019,0 31 0 0,0
15.08.2018 02:00:00 16,1 12,6 13,4 16,6 20,4 19,6 9 5 16 8 W 1018,6 38 0 0,0
15.08.2018 01:00:00 16,7 12,5 14,1 17,3 20,7 19,6 9 5 16 9 W 1018,3 38 0 0,0
15.08.2018 00:00:00 17,4 12,4 15,6 18,0 20,9 19,6 8 5 14 7 WNW 1017,9 47 0 0,0
14.08.2018 23:00:00 18,0 12,4 16,3 18,5 21,1 19,6 6 4 14 8 W 1017,6 47 0 0,0
14.08.2018 22:00:00 18,3 12,4 17,0 19,0 21,3 19,7 8 4 11 6 WNW 1017,3 59 0 0,0
14.08.2018 21:00:00 18,5 12,3 16,8 19,6 21,5 19,7 6 3 13 7 NW 1016,9 69 0 0,0
14.08.2018 20:00:00 19,4 12,0 18,7 20,6 21,5 19,7 8 5 23 13 NW 1015,7 70 0 0,0
14.08.2018 19:00:00 20,4 11,7 20,3 21,7 21,5 19,7 20 11 28 15 NNW 1015,1 69 16 0,0
14.08.2018 18:00:00 20,8 10,9 21,5 22,3 21,4 19,7 14 8 34 18 NNW 1014,8 67 3 0,0
14.08.2018 17:00:00 21,5 10,9 22,9 22,7 21,2 19,7 17 9 29 16 W 1014,3 56 22 0,0
14.08.2018 16:00:00 21,2 11,4 24,4 22,6 21,1 19,7 14 8 33 18 NW 1014,3 51 17 0,0
14.08.2018 15:00:00 21,2 11,2 25,4 22,0 20,9 19,7 17 9 32 17 WNW 1014,4 54 11 0,0
14.08.2018 14:00:00 20,8 11,7 24,2 21,8 20,7 19,7 15 8 31 17 W 1014,1 47 16 0,0
14.08.2018 13:00:00 19,6 12,1 21,8 22,0 20,5 19,7 14 7 33 18 WNW 1014,4 70 23 0,0
14.08.2018 12:00:00 19,8 13,3 24,7 22,4 20,2 19,7 18 10 31 17 W 1014,2 45 43 0,0
14.08.2018 11:00:00 18,7 13,8 24,0 20,9 20,0 19,7 18 10 29 16 W 1014,3 18 35 0,0
14.08.2018 10:00:00 17,0 13,9 19,2 19,8 19,9 19,7 9 5 25 14 WNW 1014,6 44 37 0,0
14.08.2018 09:00:00 16,4 14,0 19,5 18,6 20,0 19,7 12 6 19 11 W 1014,4 27 56 0,0
14.08.2018 08:00:00 15,4 14,1 16,4 16,4 20,1 19,7 6 3 10 5 W 1014,0 31 19 0,0
14.08.2018 07:00:00 14,7 13,9 13,5 16,0 20,3 19,7 4 2 10 5 W 1013,6 28 7 0,0
14.08.2018 06:00:00 14,8 14,2 13,7 16,3 20,6 19,7 4 2 11 6 WSW 1012,9 20 0 0,0
14.08.2018 05:00:00 15,2 14,4 13,8 16,6 20,9 19,7 7 4 13 7 W 1012,3 26 0 0,0
14.08.2018 04:00:00 15,3 14,5 14,2 17,0 21,2 19,7 8 4 14 8 W 1012,3 27 0 0,0
14.08.2018 03:00:00 15,1 14,4 14,1 17,1 21,5 19,7 5 3 14 8 W 1012,2 44 0 0,0
14.08.2018 02:00:00 15,6 14,5 14,7 17,6 21,9 19,7 9 5 15 8 SW 1012,2 57 0 0,0
14.08.2018 01:00:00 15,9 15,2 15,0 18,3 22,2 19,7 10 5 14 7 SW 1011,9 30 0 0,0
14.08.2018 00:00:00 16,3 15,7 15,7 19,0 22,5 19,7 7 4 9 5 SSW 1011,8 19 0 0,0
13.08.2018 23:00:00 16,9 16,6 16,5 19,9 22,8 19,8 5 3 16 8 S 1011,3 5 0 6,3
13.08.2018 22:00:00 17,3 16,3 16,9 20,8 23,1 19,8 7 4 10 5 WSW 1012,0 3,5 0 0,0
13.08.2018 21:00:00 17,6 16,5 16,9 21,4 23,4 19,8 7 4 13 7 SSE 1010,8 15 0 0,0
13.08.2018 20:00:00 18,2 16,6 17,8 22,4 23,7 19,8 8 5 13 7 SSE 1010,2 23 0 0,1
13.08.2018 19:00:00 18,5 16,3 18,1 23,3 23,9 19,8 6 3 9 5 SSE 1010,3 33 0 0,0
13.08.2018 18:00:00 18,7 16,1 18,5 24,5 24,0 19,8 4 2 29 16 SSW 1010,4 45 0 1,3
13.08.2018 17:00:00 23,4 11,9 24,0 26,9 23,8 19,8 16 9 29 15 WNW 1009,2 70 0 0,0
13.08.2018 16:00:00 24,2 12,4 26,2 27,5 23,6 19,8 16 9 31 17 NW 1008,6 63 0 0,0
13.08.2018 15:00:00 25,5 12,3 28,6 28,7 23,1 19,8 19 10 38 20 NW 1009,0 36 21 0,0
13.08.2018 14:00:00 26,8 12,1 30,3 28,9 22,6 19,8 13 7 37 20 NW 1008,6 57 24 0,0
13.08.2018 13:00:00 27,6 11,7 34,6 28,1 22,2 19,8 19 10 34 19 NNW 1008,4 24 51 0,0
13.08.2018 12:00:00 24,8 14,1 27,3 25,7 21,8 19,8 9 5 24 13 SSW 1009,1 59 12 0,0
13.08.2018 11:00:00 24,4 12,9 28,1 25,7 21,4 19,8 12 6 23 12 SSW 1009,2 48 48 0,0
13.08.2018 10:00:00 23,6 13,0 27,2 23,4 21,2 19,8 11 6 19 10 SSW 1009,2 32 60 0,0
13.08.2018 09:00:00 21,5 13,3 24,1 20,8 21,2 19,8 8 5 11 6 SSE 1009,6 36 60 0,0
13.08.2018 08:00:00 18,9 12,8 20,3 19,0 21,4 19,8 5 3 8 5 SSE 1010,2 28 59 0,0
13.08.2018 07:00:00 16,9 12,1 16,2 17,7 21,7 19,8 6 3 8 4 S 1010,9 35 35 0,0
13.08.2018 06:00:00 16,7 12,0 12,4 18,0 22,0 19,8 5 3 9 5 S 1011,0 38 0 0,0
13.08.2018 05:00:00 17,7 11,9 13,7 18,5 22,3 19,9 6 3 12 7 SSE 1010,7 43 0 0,0
13.08.2018 04:00:00 18,7 12,1 13,5 18,9 22,7 19,9 6 3 12 7 SSW 1011,0 48 0 0,0
13.08.2018 03:00:00 19,4 11,9 14,8 19,5 23,0 19,9 6 3 10 5 SSW 1011,2 47 0 0,0
13.08.2018 02:00:00 18,9 11,3 13,4 20,1 23,4 19,9 4 2 6 4 SSW 1011,8 54 0 0,0
13.08.2018 01:00:00 18,6 10,9 13,9 20,8 23,7 19,9 4 2 9 5 SE 1012,1 56 0 0,0
13.08.2018 00:00:00 20,1 10,8 14,5 21,7 24,1 19,9 5 3 9 5 ESE 1012,0 48 0 0,0
12.08.2018 23:00:00 20,7 10,8 16,1 22,6 24,5 19,9 8 4 9 5 SE 1012,3 64 0 0,0
12.08.2018 22:00:00 21,2 11,1 15,6 23,9 24,8 19,9 5 3 5 3 ESE 1012,3 70 0 0,0
12.08.2018 21:00:00 22,9 10,6 16,9 25,8 24,9 19,9 4 2 6 3 ESE 1011,8 70 27 0,0
12.08.2018 20:00:00 25,7 9,4 22,3 27,8 24,9 19,9 3 2 12 6 S 1011,3 70 59 0,0
12.08.2018 19:00:00 27,2 9,1 27,7 29,5 24,6 20,0 6 3 15 8 SSW 1011,4 70 60 0,0
12.08.2018 18:00:00 27,3 8,4 29,1 30,4 24,2 20,0 9 5 22 12 SSW 1011,9 48 60 0,0
12.08.2018 17:00:00 27,5 6,4 30,7 30,7 23,6 20,0 5 3 19 10 SSW 1012,7 39 60 0,0
12.08.2018 16:00:00 27,3 6,0 31,5 30,7 23,0 20,0 9 5 22 12 SSW 1013,3 29 60 0,0
12.08.2018 15:00:00 26,0 6,8 31,1 30,0 22,2 20,0 9 5 26 14 ESE 1014,2 23 60 0,0
12.08.2018 14:00:00 25,0 7,2 31,2 29,6 21,5 20,0 12 6 33 18 SE 1015,1 33 60 0,0
12.08.2018 13:00:00 23,7 7,3 28,9 27,9 20,8 20,0 10 6 22 12 E 1016,3 24 60 0,0
12.08.2018 12:00:00 23,0 7,0 27,9 25,7 20,2 20,0 12 6 24 13 ESE 1017,1 23 60 0,0
12.08.2018 11:00:00 22,2 7,8 26,1 23,4 19,9 20,0 13 7 22 12 ESE 1017,5 34 60 0,0
12.08.2018 10:00:00 19,9 7,9 24,2 20,8 19,7 20,0 10 5 17 9 SE 1018,4 45 60 0,0
12.08.2018 09:00:00 18,3 8,1 20,8 18,3 19,7 20,0 9 5 16 8 SE 1018,9 45 60 0,0
12.08.2018 08:00:00 16,4 7,8 17,3 16,1 19,8 20,0 6 3 9 5 E 1019,6 59 60 0,0
12.08.2018 07:00:00 14,9 7,2 12,8 14,7 20,1 20,0 4 2 6 3 E 1020,1 67 25 0,0
12.08.2018 06:00:00 11,8 6,7 7,3 14,9 20,5 20,0 4 2 5 3 N 1021,0 70 0 0,0
12.08.2018 05:00:00 12,3 6,7 7,5 15,4 20,8 20,0 0 0 4 2 N 1021,3 61 0 0,0
12.08.2018 04:00:00 13,1 6,6 8,5 15,9 21,2 20,0 4 2 5 3 N 1021,8 70 0 0,0
12.08.2018 03:00:00 13,4 6,1 8,3 16,5 21,5 20,0 5 3 7 4 N 1022,1 70 0 0,0
12.08.2018 02:00:00 13,8 6,8 8,7 17,1 21,9 20,0 5 3 5 3 N 1022,4 47 0 0,0
12.08.2018 01:00:00 14,5 6,6 9,5 17,8 22,3 20,1 5 3 8 5 NNW 1022,5 70 0 0,0
12.08.2018 00:00:00 15,7 6,4 10,6 18,7 22,6 20,1 6 3 10 5 NNW 1022,6 70 0 0,0
11.08.2018 23:00:00 16,2 6,4 11,7 19,6 23,0 20,1 6 4 11 6 NNW 1022,4 70 0 0,0
11.08.2018 22:00:00 17,2 6,0 12,5 20,7 23,3 20,1 6 4 11 6 NW 1022,1 65 0 0,0
11.08.2018 21:00:00 19,2 5,7 14,1 22,1 23,4 20,0 8 4 14 8 WNW 1021,4 65 1 0,0
11.08.2018 20:00:00 20,5 6,2 17,8 23,9 23,5 20,1 8 5 19 10 W 1020,8 70 35 0,0
11.08.2018 19:00:00 22,3 5,9 23,0 25,0 23,4 20,1 9 5 24 13 WNW 1020,3 68 24 0,0
11.08.2018 18:00:00 22,4 6,3 23,7 26,1 23,2 20,1 14 7 26 14 W 1020,5 32 43 0,0
11.08.2018 17:00:00 22,6 6,1 27,0 26,4 22,9 20,1 11 6 24 13 WSW 1020,7 20 30 0,0
11.08.2018 16:00:00 21,9 6,4 24,4 26,2 22,5 20,1 13 7 26 14 WSW 1021,3 34 29 0,0
11.08.2018 15:00:00 21,2 6,7 25,8 25,8 22,2 20,1 13 7 25 13 NW 1021,9 55 14 0,0
11.08.2018 14:00:00 20,4 6,5 22,1 25,9 21,7 20,1 17 9 32 17 WSW 1022,4 57 13 0,0
11.08.2018 13:00:00 21,2 7,4 27,4 26,7 21,2 20,1 16 9 33 18 WSW 1022,3 37 50 0,0
11.08.2018 12:00:00 20,2 8,1 25,8 24,1 20,8 20,1 14 8 31 17 W 1022,9 21 31 0,0
11.08.2018 11:00:00 19,6 8,0 26,6 23,0 20,5 20,1 16 9 26 14 WNW 1022,9 16 60 0,0
11.08.2018 10:00:00 17,4 12,9 23,0 20,6 20,4 20,1 4 2 14 8 WSW 1023,1 16 59 0,0
11.08.2018 09:00:00 13,4 13,0 16,1 17,9 20,4 20,1 9 5 13 7 W 1024,1 3,3 8 0,0
11.08.2018 08:00:00 12,8 12,5 13,6 16,8 20,6 20,1 8 4 13 7 SSW 1023,7 2,6 0 0,0
11.08.2018 07:00:00 11,8 11,6 11,7 16,2 20,8 20,1 6 3 11 6 SSE 1023,6 0,2 0 0,0
11.08.2018 06:00:00 11,9 11,8 11,7 16,3 21,1 20,1 6 3 10 5 SSE 1023,5 0,3 0 0,0
11.08.2018 05:00:00 11,5 11,4 11,4 16,3 21,4 20,1 6 4 11 6 SE 1023,5 0,2 0 0,0
11.08.2018 04:00:00 12,0 11,7 11,0 16,4 21,7 20,1 6 3 9 5 SE 1023,8 3,0 0 0,0
11.08.2018 03:00:00 12,4 12,0 10,9 16,8 22,1 20,1 6 3 9 5 SSE 1024,0 3,5 0 0,0
11.08.2018 02:00:00 12,4 11,9 11,1 17,3 22,5 20,1 6 3 11 6 SSE 1024,4 7 0 0,0
11.08.2018 01:00:00 13,0 12,1 10,8 17,9 22,8 20,1 6 3 9 5 ESE 1024,7 13 0 0,0
11.08.2018 00:00:00 13,4 11,9 11,5 18,7 23,2 20,1 6 3 10 5 SE 1024,7 37 0 0,0
10.08.2018 23:00:00 14,1 11,8 12,2 19,5 23,6 20,1 8 4 11 6 SE 1024,6 61 0 0,0
10.08.2018 22:00:00 14,9 11,7 13,4 20,7 23,9 20,1 8 4 14 7 SSE 1024,7 70 0 0,0
10.08.2018 21:00:00 16,2 12,0 14,8 22,2 24,0 20,1 8 5 19 10 SSE 1024,4 70 3 0,0
10.08.2018 20:00:00 18,0 11,7 17,6 24,0 24,0 20,1 11 6 23 13 SSE 1023,6 56 54 0,0
10.08.2018 19:00:00 19,4 11,2 21,1 25,0 23,8 20,1 12 6 23 13 S 1023,1 37 27 0,0
10.08.2018 18:00:00 19,4 10,2 20,9 25,8 23,5 20,1 10 6 27 14 S 1023,1 70 39 0,0
10.08.2018 17:00:00 20,1 10,6 24,0 26,4 23,1 20,1 10 6 22 12 SSE 1023,3 22 60 0,0
10.08.2018 16:00:00 19,9 10,4 23,8 25,0 22,9 20,1 7 4 17 9 S 1023,7 21 38 0,0
10.08.2018 15:00:00 18,4 9,5 21,3 23,2 22,8 20,1 6 3 17 9 SW 1024,3 63 3 0,0
10.08.2018 14:00:00 17,5 10,4 19,3 22,2 22,8 20,1 7 4 14 8 SW 1024,5 70 0 0,0
10.08.2018 13:00:00 16,4 9,5 18,6 21,4 22,8 20,0 7 4 15 8 W 1024,9 36 1 0,0

tt = temperature
td = dewpoint
tt 5cm = temperature 5cm
tt -5cm = temperature -5cm
tt -20cm = temperature -20cm
tt -100cm = temperature -100cm
ff = wind speed
fx = gusts
dd = wind direction
ppp = reduced air pressure
vv = visibility
sd = sunshine duration
rr = precipitation

Next stations